| time (UTC) | temp C | wind direction | speed KPH | gust KPH | rain 1hr cm | rain 24hr cm | rain mn cm | humidity % | barometer mb |
| 20260507232508 | 21 | 227 | 1.6 | 8.0 | 0.00 | 0.00 | 0.00 | 23 | 1011.9 |
| 20260507232012 | 21 | 236 | 1.6 | 9.7 | 0.00 | 0.00 | 0.00 | 23 | 1012.0 |
| 20260507231525 | 22 | 284 | 3.2 | 9.7 | 0.00 | 0.00 | 0.00 | 23 | 1012.1 |
| 20260507231010 | 22 | 213 | 1.6 | 4.8 | 0.00 | 0.00 | 0.00 | 22 | 1012.1 |
| 20260507230510 | 22 | 107 | 1.6 | 6.4 | 0.00 | 0.00 | 0.00 | 22 | 1012.1 |
| 20260507230028 | 22 | 173 | 1.6 | 6.4 | 0.00 | 0.00 | 0.00 | 22 | 1012.0 |
| 20260507225509 | 21 | 265 | 3.2 | 8.0 | 0.00 | 0.00 | 0.00 | 22 | 1012.1 |
| 20260507225008 | 21 | 242 | 1.6 | 9.7 | 0.00 | 0.00 | 0.00 | 24 | 1012.1 |
| 20260507224522 | 21 | 236 | 3.2 | 9.7 | 0.00 | 0.00 | 0.00 | 22 | 1012.1 |
| 20260507224007 | 21 | 250 | 1.6 | 8.0 | 0.00 | 0.00 | 0.00 | 23 | 1012.1 |
| 20260507223508 | 21 | 257 | 1.6 | 11.3 | 0.00 | 0.00 | 0.00 | 23 | 1012.1 |
| 20260507223027 | 21 | 24 | 3.2 | 16.1 | 0.00 | 0.00 | 0.00 | 24 | 1012.2 |
| 20260507222512 | 21 | 251 | 4.8 | 16.1 | 0.00 | 0.03 | 0.00 | 23 | 1012.2 |
| 20260507222009 | 21 | 180 | 1.6 | 8.0 | 0.00 | 0.03 | 0.00 | 23 | 1012.2 |
| 20260507221539 | 22 | 333 | 1.6 | 9.7 | 0.00 | 0.03 | 0.00 | 22 | 1012.2 |
| 20260507221008 | 22 | 342 | 1.6 | 9.7 | 0.00 | 0.05 | 0.00 | 23 | 1012.4 |
| 20260507220512 | 21 | 185 | 1.6 | 8.0 | 0.00 | 0.08 | 0.00 | 24 | 1012.5 |
| 20260507220024 | 21 | 185 | 3.2 | 9.7 | 0.00 | 0.08 | 0.00 | 25 | 1012.7 |
| 20260507215510 | 21 | 169 | 3.2 | 16.1 | 0.00 | 0.10 | 0.00 | 25 | 1012.8 |
| 20260507215010 | 21 | 229 | 4.8 | 14.5 | 0.00 | 0.13 | 0.00 | 26 | 1012.9 |
| 20260507214528 | 20 | 169 | 3.2 | 14.5 | 0.00 | 0.15 | 0.00 | 26 | 1013.1 |
| 20260507214009 | 20 | 157 | 3.2 | 9.7 | 0.00 | 0.18 | 0.00 | 27 | 1013.1 |
| 20260507213511 | 20 | 248 | 3.2 | 16.1 | 0.00 | 0.20 | 0.00 | 26 | 1013.3 |
| 20260507213026 | 20 | 212 | 3.2 | 16.1 | 0.00 | 0.23 | 0.00 | 26 | 1013.3 |
| 20260507212506 | 20 | 236 | 3.2 | 12.9 | 0.00 | 0.28 | 0.00 | 26 | 1013.3 |
| 20260507212007 | 20 | 161 | 4.8 | 12.9 | 0.00 | 0.33 | 0.00 | 27 | 1013.4 |
| 20260507211504 | 19 | 20 | 3.2 | 6.4 | 0.00 | 0.38 | 0.00 | 27 | 1013.5 |
| 20260507211005 | 19 | 117 | 1.6 | 17.7 | 0.00 | 0.41 | 0.00 | 29 | 1013.5 |
| 20260507210503 | 19 | 304 | 1.6 | 17.7 | 0.00 | 0.46 | 0.00 | 28 | 1013.7 |
| 20260507210003 | 19 | 329 | 3.2 | 12.9 | 0.00 | 0.51 | 0.00 | 27 | 1013.7 |
| 20260507205505 | 18 | 96 | 3.2 | 12.9 | 0.00 | 0.53 | 0.00 | 26 | 1013.8 |
| 20260507205004 | 18 | 171 | 4.8 | 12.9 | 0.00 | 0.61 | 0.00 | 28 | 1014.0 |
| 20260507204505 | 18 | 229 | 0.0 | 8.0 | 0.00 | 0.64 | 0.00 | 27 | 1014.0 |
| 20260507204004 | 18 | 234 | 0.0 | 8.0 | 0.00 | 0.66 | 0.00 | 29 | 1014.2 |
| 20260507203504 | 18 | 182 | 3.2 | 11.3 | 0.00 | 0.69 | 0.00 | 28 | 1014.2 |
| 20260507203004 | 18 | 219 | 1.6 | 11.3 | 0.00 | 0.74 | 0.00 | 27 | 1014.2 |
| 20260507202503 | 18 | 209 | 4.8 | 9.7 | 0.00 | 0.76 | 0.00 | 26 | 1014.2 |
| 20260507202003 | 19 | 242 | 3.2 | 8.0 | 0.00 | 0.81 | 0.00 | 29 | 1014.2 |
| 20260507201504 | 19 | 213 | 1.6 | 8.0 | 0.00 | 0.86 | 0.00 | 28 | 1014.3 |
| 20260507201004 | 19 | 196 | 3.2 | 11.3 | 0.00 | 0.94 | 0.00 | 26 | 1014.4 |
| 20260507200504 | 19 | 321 | 3.2 | 9.7 | 0.00 | 0.99 | 0.00 | 26 | 1014.5 |
| 20260507200004 | 20 | 335 | 1.6 | 8.0 | 0.00 | 1.07 | 0.00 | 25 | 1014.5 |
| 20260507195503 | 20 | 277 | 1.6 | 14.5 | 0.00 | 1.14 | 0.00 | 27 | 1014.4 |
| 20260507195003 | 20 | 145 | 6.4 | 14.5 | 0.00 | 1.22 | 0.00 | 26 | 1014.5 |
| 20260507194506 | 19 | 287 | 6.4 | 11.3 | 0.00 | 1.30 | 0.00 | 28 | 1014.5 |
| 20260507194003 | 19 | 194 | 3.2 | 12.9 | 0.00 | 1.37 | 0.00 | 26 | 1014.5 |
| 20260507193503 | 18 | 235 | 3.2 | 16.1 | 0.00 | 1.47 | 0.00 | 28 | 1014.7 |
| 20260507193006 | 18 | 267 | 3.2 | 16.1 | 0.00 | 1.57 | 0.00 | 27 | 1014.7 |
| 20260507192504 | 18 | 239 | 3.2 | 12.9 | 0.00 | 1.65 | 0.00 | 28 | 1014.7 |
| 20260507192003 | 18 | 260 | 3.2 | 9.7 | 0.00 | 1.70 | 0.00 | 29 | 1015.0 |
| 20260507191511 | 18 | 352 | 1.6 | 11.3 | 0.00 | 1.73 | 0.00 | 31 | 1015.0 |
| 20260507191003 | 18 | 221 | 4.8 | 11.3 | 0.00 | 1.75 | 0.00 | 28 | 1015.1 |
| 20260507190504 | 17 | 202 | 1.6 | 14.5 | 0.00 | 1.78 | 0.00 | 30 | 1015.1 |
| 20260507190012 | 17 | 209 | 4.8 | 14.5 | 0.00 | 1.80 | 0.00 | 32 | 1015.2 |
| 20260507185504 | 17 | 204 | 3.2 | 9.7 | 0.00 | 1.83 | 0.00 | 33 | 1015.3 |
| 20260507185002 | 16 | 251 | 3.2 | 8.0 | 0.00 | 1.85 | 0.00 | 33 | 1015.3 |
| 20260507184504 | 16 | 9 | 1.6 | 6.4 | 0.00 | 1.88 | 0.00 | 33 | 1015.4 |
| 20260507184003 | 16 | 34 | 1.6 | 4.8 | 0.00 | 1.91 | 0.00 | 32 | 1015.4 |
| 20260507183504 | 16 | 306 | 1.6 | 4.8 | 0.00 | 1.91 | 0.00 | 35 | 1015.3 |
| 20260507183008 | 16 | 349 | 0.0 | 9.7 | 0.00 | 1.93 | 0.00 | 35 | 1015.5 |
| 20260507182504 | 16 | 72 | 1.6 | 9.7 | 0.00 | 1.96 | 0.00 | 33 | 1015.4 |
| 20260507182005 | 16 | 251 | 1.6 | 8.0 | 0.00 | 1.98 | 0.00 | 34 | 1015.4 |
| 20260507181508 | 15 | 221 | 3.2 | 8.0 | 0.00 | 1.98 | 0.00 | 33 | 1015.4 |
| 20260507181006 | 15 | 177 | 1.6 | 6.4 | 0.00 | 2.01 | 0.00 | 38 | 1015.4 |
| 20260507180507 | 15 | 277 | 0.0 | 6.4 | 0.00 | 2.01 | 0.00 | 39 | 1015.5 |
| 20260507180012 | 15 | 250 | 1.6 | 3.2 | 0.00 | 2.03 | 0.00 | 38 | 1015.6 |
| 20260507175504 | 15 | 250 | 0.0 | 3.2 | 0.00 | 2.03 | 0.00 | 39 | 1015.6 |
| 20260507175003 | 15 | 291 | 0.0 | 4.8 | 0.00 | 2.06 | 0.00 | 39 | 1015.7 |
| 20260507174508 | 14 | 254 | 1.6 | 6.4 | 0.00 | 2.08 | 0.00 | 39 | 1015.8 |
| 20260507174005 | 14 | 222 | 3.2 | 8.0 | 0.00 | 2.08 | 0.00 | 39 | 1015.8 |
| 20260507173504 | 14 | 236 | 1.6 | 8.0 | 0.00 | 2.11 | 0.00 | 40 | 1015.9 |
| 20260507173015 | 14 | 215 | 1.6 | 8.0 | 0.00 | 2.11 | 0.00 | 40 | 1015.8 |
| 20260507172504 | 14 | 244 | 3.2 | 8.0 | 0.00 | 2.11 | 0.00 | 39 | 1015.8 |
| 20260507172004 | 14 | 227 | 3.2 | 6.4 | 0.00 | 2.13 | 0.00 | 38 | 1015.9 |
| 20260507171511 | 14 | 242 | 1.6 | 4.8 | 0.00 | 2.13 | 0.00 | 37 | 1016.1 |
| 20260507171003 | 14 | 236 | 0.0 | 4.8 | 0.00 | 2.13 | 0.00 | 37 | 1016.1 |
| 20260507170504 | 14 | 293 | 1.6 | 9.7 | 0.00 | 2.13 | 0.00 | 36 | 1016.1 |
| 20260507170009 | 14 | 286 | 1.6 | 11.3 | 0.00 | 2.16 | 0.00 | 37 | 1016.1 |
| 20260507165507 | 13 | 248 | 1.6 | 12.9 | 0.00 | 2.16 | 0.00 | 38 | 1016.0 |
| 20260507165003 | 13 | 250 | 3.2 | 12.9 | 0.00 | 2.16 | 0.00 | 39 | 1016.0 |
| 20260507164513 | 13 | 249 | 0.0 | 3.2 | 0.00 | 2.16 | 0.00 | 40 | 1015.9 |
| 20260507164004 | 13 | 273 | 0.0 | 4.8 | 0.00 | 2.16 | 0.00 | 39 | 1015.8 |
| 20260507163505 | 13 | 292 | 1.6 | 8.0 | 0.00 | 2.18 | 0.00 | 38 | 1015.6 |
| 20260507163009 | 13 | 329 | 3.2 | 14.5 | 0.00 | 2.18 | 0.00 | 36 | 1015.6 |
| 20260507162505 | 13 | 329 | 4.8 | 14.5 | 0.00 | 2.18 | 0.00 | 37 | 1015.6 |
| 20260507162006 | 13 | 352 | 3.2 | 14.5 | 0.00 | 2.18 | 0.00 | 39 | 1015.6 |
| 20260507161508 | 12 | 291 | 3.2 | 14.5 | 0.00 | 2.18 | 0.00 | 38 | 1015.7 |
| 20260507161007 | 12 | 19 | 4.8 | 9.7 | 0.00 | 2.21 | 0.00 | 39 | 1015.9 |
| 20260507160504 | 12 | 350 | 4.8 | 14.5 | 0.00 | 2.21 | 0.00 | 38 | 1016.2 |
| 20260507160009 | 12 | 333 | 4.8 | 14.5 | 0.00 | 2.21 | 0.00 | 37 | 1016.0 |
| 20260507155503 | 12 | 324 | 4.8 | 14.5 | 0.00 | 2.21 | 0.00 | 38 | 1016.1 |
| 20260507155011 | 13 | 275 | 3.2 | 11.3 | 0.00 | 2.21 | 0.00 | 38 | 1016.2 |
| 20260507154510 | 13 | 292 | 3.2 | 14.5 | 0.00 | 2.21 | 0.00 | 38 | 1016.3 |
| 20260507154009 | 13 | 360 | 4.8 | 14.5 | 0.00 | 2.21 | 0.00 | 37 | 1016.3 |
| 20260507153504 | 14 | 286 | 3.2 | 14.5 | 0.00 | 2.21 | 0.00 | 37 | 1016.3 |
| 20260507153009 | 14 | 283 | 3.2 | 14.5 | 0.00 | 2.21 | 0.00 | 35 | 1016.3 |
| 20260507152504 | 14 | 313 | 1.6 | 16.1 | 0.00 | 2.21 | 0.00 | 35 | 1016.3 |
| 20260507152003 | 14 | 360 | 3.2 | 16.1 | 0.00 | 2.21 | 0.00 | 35 | 1016.1 |
| 20260507151511 | 14 | 304 | 4.8 | 12.9 | 0.00 | 2.21 | 0.00 | 36 | 1016.3 |
| 20260507151005 | 14 | 252 | 4.8 | 12.9 | 0.00 | 2.21 | 0.00 | 36 | 1016.3 |
| 20260507150504 | 14 | 270 | 4.8 | 9.7 | 0.00 | 2.21 | 0.00 | 37 | 1016.3 |
| 20260507150009 | 13 | 9 | 4.8 | 14.5 | 0.00 | 2.21 | 0.00 | 38 | 1016.3 |
| 20260507145503 | 13 | 335 | 6.4 | 14.5 | 0.00 | 2.21 | 0.00 | 38 | 1016.1 |
| 20260507145007 | 13 | 270 | 3.2 | 14.5 | 0.00 | 2.21 | 0.00 | 40 | 1016.0 |
| 20260507144509 | 13 | 272 | 4.8 | 14.5 | 0.00 | 2.21 | 0.00 | 37 | 1016.0 |
| 20260507144004 | 13 | 261 | 3.2 | 11.3 | 0.00 | 2.24 | 0.00 | 38 | 1015.9 |
| 20260507143505 | 13 | 247 | 3.2 | 14.5 | 0.00 | 2.24 | 0.00 | 37 | 1015.9 |
| 20260507143012 | 13 | 268 | 3.2 | 12.9 | 0.00 | 2.24 | 0.00 | 39 | 1015.9 |
| 20260507142504 | 13 | 306 | 4.8 | 12.9 | 0.00 | 2.24 | 0.00 | 39 | 1015.7 |
| 20260507142011 | 13 | 323 | 4.8 | 17.7 | 0.00 | 2.24 | 0.00 | 39 | 1015.7 |
| 20260507141512 | 13 | 334 | 3.2 | 17.7 | 0.00 | 2.24 | 0.00 | 39 | 1015.8 |
| 20260507141004 | 13 | 329 | 1.6 | 16.1 | 0.00 | 2.24 | 0.00 | 40 | 1015.9 |
| 20260507140506 | 13 | 284 | 3.2 | 16.1 | 0.00 | 2.24 | 0.00 | 39 | 1015.9 |
| 20260507140013 | 13 | 330 | 8.0 | 14.5 | 0.00 | 2.24 | 0.00 | 39 | 1015.8 |
| 20260507135506 | 12 | 334 | 6.4 | 16.1 | 0.00 | 2.24 | 0.00 | 39 | 1015.8 |
| 20260507135008 | 12 | 9 | 6.4 | 16.1 | 0.00 | 2.24 | 0.00 | 40 | 1015.8 |
| 20260507134514 | 12 | 317 | 8.0 | 14.5 | 0.00 | 2.24 | 0.00 | 39 | 1015.8 |
| 20260507134005 | 12 | 305 | 4.8 | 12.9 | 0.00 | 2.24 | 0.00 | 41 | 1015.9 |
| 20260507133505 | 11 | 321 | 3.2 | 12.9 | 0.00 | 2.24 | 0.00 | 40 | 1016.1 |
| 20260507133019 | 11 | 319 | 3.2 | 14.5 | 0.00 | 2.24 | 0.00 | 41 | 1016.1 |
| 20260507132504 | 11 | 257 | 4.8 | 16.1 | 0.00 | 2.24 | 0.00 | 40 | 1016.1 |
| 20260507132009 | 11 | 300 | 1.6 | 17.7 | 0.00 | 2.24 | 0.00 | 41 | 1016.0 |
| 20260507131516 | 10 | 317 | 3.2 | 17.7 | 0.00 | 2.24 | 0.00 | 42 | 1016.1 |
| 20260507131004 | 10 | 284 | 3.2 | 14.5 | 0.00 | 2.24 | 0.00 | 43 | 1015.9 |
| 20260507130504 | 10 | 287 | 1.6 | 14.5 | 0.00 | 2.24 | 0.00 | 44 | 1015.8 |
| 20260507130016 | 9 | 344 | 3.2 | 11.3 | 0.00 | 2.24 | 0.00 | 45 | 1015.7 |
| 20260507125507 | 9 | 263 | 1.6 | 4.8 | 0.00 | 2.24 | 0.00 | 46 | 1015.7 |
| 20260507125005 | 8 | 277 | 1.6 | 4.8 | 0.00 | 2.24 | 0.00 | 48 | 1015.7 |
| 20260507124514 | 8 | 282 | 1.6 | 4.8 | 0.00 | 2.24 | 0.00 | 49 | 1015.7 |
| 20260507124006 | 8 | 261 | 1.6 | 8.0 | 0.00 | 2.24 | 0.00 | 48 | 1015.7 |
| 20260507123507 | 8 | 330 | 3.2 | 8.0 | 0.00 | 2.24 | 0.00 | 47 | 1015.7 |
| 20260507123015 | 8 | 288 | 1.6 | 12.9 | 0.00 | 2.24 | 0.00 | 47 | 1015.6 |
| 20260507122503 | 8 | 306 | 3.2 | 14.5 | 0.00 | 2.24 | 0.00 | 47 | 1015.5 |
| 20260507122003 | 7 | 309 | 4.8 | 14.5 | 0.00 | 2.24 | 0.00 | 48 | 1015.6 |
| 20260507121506 | 6 | 348 | 1.6 | 8.0 | 0.00 | 2.24 | 0.00 | 53 | 1015.4 |
| 20260507121004 | 6 | 244 | 1.6 | 8.0 | 0.00 | 2.24 | 0.00 | 54 | 1015.7 |
| 20260507120503 | 6 | 290 | 1.6 | 6.4 | 0.00 | 2.24 | 0.00 | 54 | 1015.5 |
| 20260507120010 | 5 | 227 | 0.0 | 3.2 | 0.00 | 2.24 | 0.00 | 58 | 1015.5 |
| 20260507115507 | 6 | 186 | 1.6 | 6.4 | 0.00 | 2.24 | 0.00 | 57 | 1015.4 |
| 20260507115006 | 6 | 265 | 3.2 | 6.4 | 0.00 | 2.24 | 0.00 | 56 | 1015.4 |
| 20260507114518 | 6 | 74 | 3.2 | 8.0 | 0.00 | 2.24 | 0.00 | 56 | 1015.4 |
| 20260507114003 | 6 | 229 | 1.6 | 8.0 | 0.00 | 2.24 | 0.00 | 53 | 1015.4 |
| 20260507113504 | 5 | 170 | 0.0 | 8.0 | 0.00 | 2.24 | 0.00 | 58 | 1015.4 |
| 20260507113012 | 5 | 269 | 3.2 | 6.4 | 0.00 | 2.24 | 0.00 | 59 | 1015.4 |
| 20260507112506 | 5 | 259 | 3.2 | 6.4 | 0.00 | 2.24 | 0.00 | 61 | 1015.6 |
| 20260507112007 | 5 | 234 | 3.2 | 8.0 | 0.00 | 2.24 | 0.00 | 58 | 1015.6 |
| 20260507111520 | 4 | 108 | 3.2 | 8.0 | 0.00 | 2.24 | 0.00 | 64 | 1015.4 |
| 20260507111006 | 3 | 61 | 4.8 | 6.4 | 0.00 | 2.24 | 0.00 | 69 | 1015.4 |
| 20260507110507 | 3 | 346 | 1.6 | 4.8 | 0.00 | 2.24 | 0.00 | 71 | 1015.4 |
| 20260507110003 | 3 | 51 | 3.2 | 4.8 | 0.00 | 2.24 | 0.00 | 68 | 1015.5 |
| 20260507105506 | 3 | 212 | 0.0 | 3.2 | 0.00 | 2.24 | 0.00 | 68 | 1015.6 |
| 20260507105004 | 3 | 128 | 0.0 | 3.2 | 0.00 | 2.24 | 0.00 | 67 | 1015.6 |
| 20260507104511 | 4 | 158 | 0.0 | 3.2 | 0.00 | 2.24 | 0.00 | 66 | 1015.6 |
| 20260507104009 | 5 | 126 | 0.0 | 3.2 | 0.00 | 2.24 | 0.00 | 63 | 1015.6 |
| 20260507103509 | 5 | 213 | 0.0 | 3.2 | 0.00 | 2.24 | 0.00 | 62 | 1015.5 |
| 20260507103026 | 5 | 209 | 1.6 | 6.4 | 0.00 | 2.24 | 0.00 | 64 | 1015.4 |
| 20260507102506 | 4 | 270 | 0.0 | 6.4 | 0.00 | 2.24 | 0.00 | 62 | 1015.5 |
| 20260507102003 | 3 | 234 | 0.0 | 3.2 | 0.00 | 2.24 | 0.00 | 66 | 1015.7 |
| 20260507101508 | 3 | 277 | 0.0 | 3.2 | 0.00 | 2.24 | 0.00 | 65 | 1015.6 |
| 20260507101002 | 3 | 180 | 0.0 | 3.2 | 0.00 | 2.24 | 0.00 | 66 | 1015.7 |
| 20260507100506 | 3 | 180 | 0.0 | 9.7 | 0.00 | 2.24 | 0.00 | 67 | 1015.7 |
| 20260507100020 | 3 | 188 | 1.6 | 9.7 | 0.00 | 2.24 | 0.00 | 66 | 1015.7 |
| 20260507095508 | 3 | 283 | 0.0 | 3.2 | 0.00 | 2.24 | 0.00 | 65 | 1015.8 |
| 20260507095006 | 3 | 261 | 0.0 | 3.2 | 0.00 | 2.24 | 0.00 | 65 | 1015.8 |
| 20260507094523 | 3 | 252 | 1.6 | 3.2 | 0.00 | 2.24 | 0.00 | 64 | 1015.9 |
| 20260507094005 | 3 | 209 | 0.0 | 3.2 | 0.00 | 2.24 | 0.00 | 64 | 1015.9 |
| 20260507093502 | 4 | 219 | 1.6 | 3.2 | 0.00 | 2.24 | 0.00 | 65 | 1015.9 |
| 20260507093007 | 4 | 15 | 0.0 | 3.2 | 0.00 | 2.24 | 0.00 | 61 | 1015.8 |
| 20260507092506 | 4 | 207 | 0.0 | 12.9 | 0.00 | 2.24 | 0.00 | 64 | 1015.8 |
| 20260507090010 | 4 | 254 | 0.0 | 9.7 | 0.00 | 2.24 | 0.00 | 64 | 1015.9 |
| 20260507085503 | 5 | 55 | 0.0 | 4.8 | 0.00 | 2.24 | 0.00 | 60 | 1015.9 |
| 20260507085003 | 5 | 352 | 0.0 | 6.4 | 0.00 | 2.24 | 0.00 | 58 | 1016.0 |
| 20260507084519 | 5 | 246 | 3.2 | 6.4 | 0.00 | 2.24 | 0.00 | 57 | 1015.9 |
| 20260507084007 | 6 | 254 | 0.0 | 8.0 | 0.00 | 2.24 | 0.00 | 56 | 1016.0 |
| 20260507083508 | 6 | 305 | 3.2 | 8.0 | 0.00 | 2.24 | 0.00 | 55 | 1015.9 |
| 20260507083021 | 5 | 277 | 1.6 | 6.4 | 0.00 | 2.24 | 0.00 | 56 | 1016.1 |
| 20260507082510 | 5 | 287 | 1.6 | 12.9 | 0.00 | 2.24 | 0.00 | 56 | 1016.1 |
| 20260507082002 | 5 | 255 | 1.6 | 14.5 | 0.00 | 2.26 | 0.00 | 58 | 1016.1 |
| 20260507081507 | 3 | 55 | 4.8 | 14.5 | 0.00 | 2.26 | 0.00 | 67 | 1015.9 |
| 20260507081006 | 2 | 352 | 3.2 | 6.4 | 0.00 | 2.26 | 0.00 | 69 | 1015.9 |
| 20260507080507 | 1 | 348 | 1.6 | 9.7 | 0.00 | 2.26 | 0.00 | 76 | 1016.0 |
| 20260507080020 | 1 | 57 | 4.8 | 9.7 | 0.00 | 2.26 | 0.00 | 76 | 1016.0 |
| 20260507075507 | 1 | 101 | 1.6 | 6.4 | 0.00 | 2.26 | 0.00 | 81 | 1016.1 |
| 20260507075003 | 1 | 57 | 1.6 | 6.4 | 0.00 | 2.26 | 0.00 | 80 | 1016.2 |
| 20260507074504 | 0 | 59 | 3.2 | 6.4 | 0.00 | 2.26 | 0.00 | 82 | 1016.2 |
| 20260507074003 | 0 | 59 | 3.2 | 4.8 | 0.00 | 2.26 | 0.00 | 83 | 1016.3 |
| 20260507073504 | 0 | 94 | 1.6 | 4.8 | 0.00 | 2.26 | 0.00 | 84 | 1016.2 |
| 20260507073011 | 0 | 78 | 1.6 | 4.8 | 0.00 | 2.26 | 0.00 | 83 | 1016.3 |
| 20260507072504 | 0 | 210 | 0.0 | 4.8 | 0.00 | 2.26 | 0.00 | 84 | 1016.3 |
| 20260507072008 | 0 | 280 | 1.6 | 4.8 | 0.00 | 2.26 | 0.00 | 84 | 1016.4 |
| 20260507071520 | 0 | 271 | 0.0 | 4.8 | 0.00 | 2.26 | 0.00 | 85 | 1016.4 |
| 20260507071003 | 0 | 282 | 1.6 | 4.8 | 0.00 | 2.26 | 0.00 | 85 | 1016.5 |
| 20260507070503 | 0 | 259 | 1.6 | 4.8 | 0.00 | 2.26 | 0.00 | 85 | 1016.6 |
| 20260507070008 | 0 | 256 | 0.0 | 4.8 | 0.00 | 2.26 | 0.00 | 86 | 1016.6 |
| 20260507065503 | 0 | 117 | 0.0 | 4.8 | 0.00 | 2.26 | 0.00 | 86 | 1016.6 |
| 20260507065006 | 1 | 224 | 1.6 | 9.7 | 0.00 | 2.26 | 0.00 | 86 | 1016.8 |
| 20260507064517 | 0 | 189 | 1.6 | 9.7 | 0.00 | 2.26 | 0.00 | 89 | 1016.8 |
| 20260507064006 | 0 | 278 | 1.6 | 8.0 | 0.00 | 2.26 | 0.00 | 94 | 1016.9 |
| 20260507063510 | -1 | 254 | 1.6 | 4.8 | 0.00 | 2.26 | 0.00 | 94 | 1017.1 |
| 20260507063002 | -1 | 225 | 1.6 | 4.8 | 0.00 | 2.26 | 0.00 | 94 | 1017.0 |
| 20260507062503 | -1 | 244 | 0.0 | 1.6 | 0.00 | 2.26 | 0.00 | 93 | 1016.9 |
| 20260507062004 | -1 | 236 | 0.0 | 0.0 | 0.00 | 2.26 | 0.00 | 93 | 1016.9 |
| 20260507061508 | -1 | 225 | 0.0 | 0.0 | 0.00 | 2.26 | 0.00 | 93 | 1017.0 |
| 20260507061005 | -1 | 225 | 0.0 | 0.0 | 0.00 | 2.26 | 0.00 | 93 | 1017.1 |
| 20260507060506 | -1 | 209 | 0.0 | 0.0 | 0.00 | 2.26 | 0.00 | 93 | 1017.1 |
| 20260507060020 | -1 | 209 | 0.0 | 0.0 | 0.00 | 2.26 | 0.00 | 93 | 1017.2 |
| 20260507055507 | -1 | 190 | 0.0 | 0.0 | 0.00 | 2.26 | 2.26 | 93 | 1017.2 |
| 20260507055002 | -1 | 193 | 0.0 | 0.0 | 0.00 | 2.26 | 2.26 | 93 | 1017.3 |
| 20260507054503 | -1 | 198 | 0.0 | 0.0 | 0.00 | 2.26 | 2.26 | 93 | 1017.3 |
| 20260507054003 | -1 | 166 | 0.0 | 0.0 | 0.00 | 2.26 | 2.26 | 93 | 1017.3 |
| 20260507053505 | -1 | 166 | 0.0 | 0.0 | 0.00 | 2.26 | 2.26 | 93 | 1017.3 |
| 20260507053011 | -1 | 166 | 0.0 | 0.0 | 0.00 | 2.26 | 2.26 | 92 | 1017.3 |
| 20260507052506 | -1 | 166 | 0.0 | 0.0 | 0.00 | 2.26 | 2.26 | 92 | 1017.3 |
| 20260507052008 | -1 | 166 | 0.0 | 0.0 | 0.00 | 2.26 | 2.26 | 92 | 1017.4 |
| 20260507051521 | -1 | 166 | 0.0 | 0.0 | 0.00 | 2.26 | 2.26 | 93 | 1017.5 |
| 20260507051006 | -1 | 166 | 0.0 | 0.0 | 0.00 | 2.26 | 2.26 | 93 | 1017.7 |
| 20260507050503 | -1 | 173 | 0.0 | 3.2 | 0.00 | 2.26 | 2.26 | 93 | 1017.7 |
| 20260507050020 | -1 | 175 | 0.0 | 3.2 | 0.00 | 2.26 | 2.26 | 92 | 1017.7 |
| 20260507045503 | -1 | 179 | 0.0 | 3.2 | 0.00 | 2.26 | 2.26 | 92 | 1017.8 |
| 20260507045006 | -1 | 179 | 0.0 | 3.2 | 0.00 | 2.26 | 2.26 | 92 | 1017.8 |
| 20260507044517 | -1 | 177 | 0.0 | 3.2 | 0.00 | 2.26 | 2.26 | 92 | 1017.9 |
| 20260507044012 | -1 | 177 | 0.0 | 3.2 | 0.00 | 2.26 | 2.26 | 92 | 1017.9 |
| 20260507043511 | -1 | 177 | 0.0 | 3.2 | 0.00 | 2.26 | 2.26 | 92 | 1018.0 |
| 20260507043026 | 0 | 177 | 0.0 | 3.2 | 0.00 | 2.26 | 2.26 | 92 | 1018.0 |
| 20260507042503 | 0 | 177 | 0.0 | 3.2 | 0.00 | 2.29 | 2.26 | 92 | 1017.8 |
| 20260507042003 | 0 | 177 | 0.0 | 3.2 | 0.00 | 2.29 | 2.26 | 92 | 1018.0 |
| 20260507041510 | 0 | 183 | 0.0 | 3.2 | 0.00 | 2.29 | 2.26 | 92 | 1018.0 |
| 20260507041006 | 0 | 181 | 0.0 | 3.2 | 0.00 | 2.29 | 2.26 | 91 | 1018.1 |
| 20260507040507 | 0 | 207 | 0.0 | 3.2 | 0.00 | 2.29 | 2.26 | 91 | 1018.2 |
| 20260507040018 | 0 | 207 | 0.0 | 3.2 | 0.00 | 2.29 | 2.26 | 91 | 1018.3 |
| 20260507035515 | 0 | 208 | 0.0 | 3.2 | 0.00 | 2.29 | 2.26 | 91 | 1018.2 |
| 20260507035009 | 0 | 208 | 0.0 | 3.2 | 0.00 | 2.29 | 2.26 | 90 | 1018.4 |
| 20260507034505 | 0 | 220 | 0.0 | 3.2 | 0.00 | 2.29 | 2.26 | 90 | 1018.4 |
| 20260507034003 | 0 | 221 | 0.0 | 3.2 | 0.00 | 2.29 | 2.26 | 90 | 1018.2 |
| 20260507033504 | 0 | 221 | 0.0 | 3.2 | 0.00 | 2.29 | 2.26 | 90 | 1018.2 |
| 20260507033013 | 0 | 221 | 0.0 | 3.2 | 0.00 | 2.29 | 2.26 | 90 | 1018.2 |
| 20260507032512 | 0 | 221 | 0.0 | 3.2 | 0.00 | 2.29 | 2.26 | 89 | 1018.3 |
| 20260507032009 | 0 | 222 | 0.0 | 3.2 | 0.00 | 2.29 | 2.26 | 89 | 1018.3 |
| 20260507031532 | 0 | 222 | 0.0 | 3.2 | 0.00 | 2.29 | 2.26 | 89 | 1018.3 |
| 20260507031012 | 0 | 222 | 0.0 | 3.2 | 0.00 | 2.29 | 2.26 | 88 | 1018.2 |
| 20260507030504 | 0 | 222 | 0.0 | 3.2 | 0.00 | 2.29 | 2.26 | 88 | 1018.2 |
| 20260507030006 | 0 | 222 | 0.0 | 3.2 | 0.00 | 2.29 | 2.26 | 87 | 1018.1 |
| 20260507025504 | 0 | 222 | 0.0 | 3.2 | 0.00 | 2.29 | 2.26 | 87 | 1018.0 |
| 20260507025005 | 0 | 127 | 0.0 | 3.2 | 0.00 | 2.29 | 2.26 | 86 | 1018.0 |
| 20260507024516 | 1 | 127 | 0.0 | 3.2 | 0.00 | 2.29 | 2.26 | 86 | 1018.0 |
| 20260507024005 | 1 | 127 | 0.0 | 3.2 | 0.00 | 2.29 | 2.26 | 85 | 1018.0 |
| 20260507023510 | 1 | 127 | 0.0 | 3.2 | 0.00 | 2.29 | 2.26 | 85 | 1018.0 |
| 20260507023026 | 1 | 127 | 0.0 | 3.2 | 0.00 | 2.29 | 2.26 | 84 | 1018.0 |
| 20260507022504 | 1 | 127 | 0.0 | 3.2 | 0.00 | 2.29 | 2.26 | 83 | 1018.0 |
| 20260507022005 | 1 | 123 | 0.0 | 3.2 | 0.00 | 2.29 | 2.26 | 82 | 1017.8 |
| 20260507021507 | 2 | 123 | 0.0 | 3.2 | 0.00 | 2.29 | 2.26 | 81 | 1017.8 |
| 20260507021008 | 2 | 121 | 0.0 | 3.2 | 0.00 | 2.29 | 2.26 | 81 | 1017.8 |
| 20260507020508 | 2 | 121 | 0.0 | 1.6 | 0.00 | 2.29 | 2.26 | 79 | 1017.6 |
| 20260507020024 | 2 | 121 | 0.0 | 0.0 | 0.00 | 2.29 | 2.26 | 78 | 1017.6 |
| 20260507015508 | 2 | 121 | 0.0 | 3.2 | 0.00 | 2.29 | 2.26 | 78 | 1017.6 |
| 20260507015011 | 2 | 121 | 0.0 | 4.8 | 0.00 | 2.29 | 2.26 | 77 | 1017.6 |
| 20260507014508 | 3 | 118 | 0.0 | 4.8 | 0.00 | 2.29 | 2.26 | 76 | 1017.5 |
| 20260507014004 | 3 | 164 | 0.0 | 3.2 | 0.00 | 2.29 | 2.26 | 75 | 1017.7 |
| 20260507013505 | 3 | 156 | 0.0 | 4.8 | 0.00 | 2.29 | 2.26 | 75 | 1017.6 |
| 20260507013011 | 3 | 166 | 0.0 | 4.8 | 0.00 | 2.29 | 2.26 | 75 | 1017.6 |
| 20260507012508 | 3 | 188 | 1.6 | 4.8 | 0.00 | 2.29 | 2.26 | 74 | 1017.7 |
| 20260507012007 | 3 | 215 | 1.6 | 6.4 | 0.00 | 2.29 | 2.26 | 73 | 1017.6 |
| 20260507011531 | 3 | 212 | 1.6 | 9.7 | 0.00 | 2.29 | 2.26 | 74 | 1017.6 |
| 20260507011009 | 3 | 217 | 0.0 | 9.7 | 0.00 | 2.29 | 2.26 | 74 | 1017.8 |
| 20260507010511 | 3 | 158 | 4.8 | 9.7 | 0.00 | 2.29 | 2.26 | 73 | 1017.8 |
| 20260507010010 | 3 | 226 | 1.6 | 11.3 | 0.00 | 2.29 | 2.26 | 74 | 1017.8 |
| 20260507005508 | 3 | 168 | 1.6 | 9.7 | 0.00 | 2.29 | 2.26 | 72 | 1017.8 |
| 20260507005010 | 3 | 194 | 1.6 | 8.0 | 0.00 | 2.29 | 2.26 | 72 | 1017.9 |
| 20260507004515 | 3 | 215 | 3.2 | 11.3 | 0.00 | 2.29 | 2.26 | 72 | 1017.9 |
| 20260507004007 | 3 | 209 | 4.8 | 9.7 | 0.00 | 2.29 | 2.26 | 71 | 1017.9 |
| 20260507003512 | 3 | 166 | 1.6 | 8.0 | 0.00 | 2.29 | 2.26 | 71 | 1018.0 |
| 20260507003025 | 4 | 216 | 4.8 | 8.0 | 0.00 | 2.29 | 2.26 | 71 | 1018.0 |
| 20260507002510 | 4 | 103 | 3.2 | 9.7 | 0.00 | 2.29 | 2.26 | 70 | 1018.1 |
| 20260507002004 | 4 | 167 | 3.2 | 9.7 | 0.00 | 2.29 | 2.26 | 69 | 1018.1 |
| 20260507001514 | 5 | 188 | 1.6 | 9.7 | 0.00 | 2.29 | 2.26 | 70 | 1018.2 |
| 20260507001007 | 5 | 168 | 3.2 | 12.9 | 0.00 | 2.29 | 2.26 | 68 | 1018.1 |
| 20260507000507 | 5 | 217 | 3.2 | 12.9 | 0.00 | 2.29 | 2.26 | 68 | 1018.3 |
| 20260507000023 | 5 | 184 | 1.6 | 8.0 | 0.00 | 2.29 | 2.26 | 69 | 1018.4 |
| 20260506235508 | 5 | 134 | 1.6 | 11.3 | 0.00 | 2.29 | 2.26 | 69 | 1018.4 |
| 20260506235010 | 5 | 161 | 1.6 | 11.3 | 0.00 | 2.29 | 2.26 | 68 | 1018.5 |
| 20260506234528 | 5 | 238 | 4.8 | 12.9 | 0.00 | 2.29 | 2.26 | 70 | 1018.5 |
| 20260506234003 | 5 | 139 | 4.8 | 14.5 | 0.00 | 2.29 | 2.26 | 69 | 1018.5 |
| 20260506233504 | 5 | 150 | 4.8 | 14.5 | 0.00 | 2.29 | 2.26 | 69 | 1018.5 |
| 20260506233016 | 5 | 250 | 3.2 | 11.3 | 0.00 | 2.29 | 2.26 | 73 | 1018.5 |